Location: Unspecified
(0.0000°N, 0.0000°E)
Time: 07:10:23
(UTC+00:00)

A-11 Canister half - All Passes

Search period start: 26 October 2020 00:00
Search period end: 05 November 2020 00:00
Orbit: 1515 x 1685 km, 47.2° (Epoch: 25 October)

Date Brightness Start Highest point End Pass type
(mag) Time Alt. Az. Time Alt. Az. Time Alt. Az.
26 Oct - 04:13:14 10° N 04:20:53 28° NE 04:28:25 10° ESE visible
26 Oct - 06:16:32 10° NW 06:25:37 59° SW 06:34:40 10° SSE daylight
26 Oct - 15:03:45 10° SSE 15:06:05 11° SE 15:08:25 10° ESE daylight
26 Oct - 17:01:43 10° SSW 17:11:40 64° SE 17:21:41 10° NE daylight
26 Oct - 19:08:19 10° WSW 19:16:39 29° NW 19:25:00 10° N visible
27 Oct - 03:50:36 10° N 03:57:57 26° NE 04:05:11 10° E visible
27 Oct - 05:53:33 10° NW 06:02:43 64° SW 06:11:51 10° SSE daylight
27 Oct - 16:38:53 10° SSW 16:48:43 59° SE 16:58:38 10° NE daylight
27 Oct - 18:45:04 10° WSW 18:53:40 32° NW 19:02:19 10° N visible
28 Oct - 03:27:59 10° N 03:35:00 23° NE 03:41:53 10° E visible
28 Oct - 05:30:35 10° NW 05:39:50 70° SW 05:49:01 10° SSE daylight
28 Oct - 07:42:26 10° WSW 07:45:05 11° SW 07:47:45 10° SSW daylight
28 Oct - 16:16:05 10° SSW 16:25:46 54° SE 16:35:35 10° NE daylight
28 Oct - 18:21:51 10° WSW 18:30:41 35° NW 18:39:36 10° NNE visible
29 Oct - 03:05:25 10° N 03:12:04 21° NE 03:18:33 10° E visible
29 Oct - 05:07:37 10° NW 05:16:56 76° SW 05:26:10 10° SE visible
29 Oct - 07:18:18 10° WSW 07:22:05 13° SW 07:25:53 10° SSW daylight
29 Oct - 15:53:17 10° SSW 16:02:50 49° SE 16:12:30 10° ENE daylight
29 Oct - 17:58:40 10° WSW 18:07:43 38° NW 18:16:52 10° NNE visible
30 Oct - 02:42:53 10° N 02:49:05 19° NE 02:55:10 10° E visible
30 Oct - 04:44:40 10° NW 04:54:03 83° SW 05:03:19 10° SE visible
30 Oct - 06:54:29 10° WSW 06:59:06 15° SW 07:03:45 10° SSW daylight
30 Oct - 15:30:30 10° SSW 15:39:52 45° SE 15:49:23 10° ENE daylight
30 Oct - 17:35:31 10° WSW 17:44:45 41° NW 17:54:06 10° NNE daylight
31 Oct - 02:20:25 10° N 02:26:07 17° NE 02:31:43 10° E visible
31 Oct - 04:21:44 10° NW 04:31:10 89° SW 04:40:26 10° SE visible
31 Oct - 06:30:50 10° W 06:36:08 16° SW 06:41:27 10° S daylight
31 Oct - 15:07:44 10° SSW 15:16:55 42° SE 15:26:14 10° ENE daylight
31 Oct - 17:12:24 10° WSW 17:21:47 45° NW 17:31:19 10° NNE daylight
01 Nov - 01:58:01 10° NNE 02:03:08 15° NE 02:08:08 10° ENE visible
01 Nov - 03:58:50 10° NW 04:08:16 84° NE 04:17:32 10° SE visible
01 Nov - 06:07:19 10° W 06:13:10 18° SW 06:19:02 10° S daylight
01 Nov - 14:45:01 10° SSW 14:53:58 38° SE 15:03:04 10° ENE daylight
01 Nov - 16:49:19 10° WSW 16:58:50 49° NW 17:08:30 10° NNE daylight
02 Nov - 01:35:44 10° NNE 01:40:08 14° NE 01:44:27 10° ENE visible
02 Nov - 03:35:56 10° NW 03:45:23 78° NE 03:54:37 10° SE visible
02 Nov - 05:43:51 10° W 05:50:12 20° SW 05:56:35 10° S daylight
02 Nov - 14:22:18 10° SSW 14:31:01 35° SE 14:39:52 10° ENE daylight
02 Nov - 16:26:15 10° SW 16:35:53 53° NW 16:45:42 10° NNE daylight
03 Nov - 01:13:38 10° NNE 01:17:07 12° NE 01:20:34 10° ENE visible
03 Nov - 03:13:03 10° NNW 03:22:29 72° NE 03:31:42 10° SE visible
03 Nov - 05:20:28 10° W 05:27:16 22° SW 05:34:03 10° S visible
03 Nov - 13:59:37 10° S 14:08:03 32° SE 14:16:38 10° ENE daylight
03 Nov - 16:03:13 10° SW 16:12:56 58° NW 16:22:51 10° NNE daylight
04 Nov - 00:51:57 10° NNE 00:54:06 11° NE 00:56:15 10° ENE visible
04 Nov - 02:50:11 10° NNW 02:59:35 66° NE 03:08:45 10° SE visible
04 Nov - 04:57:08 10° W 05:04:19 25° SW 05:11:29 10° S visible
04 Nov - 13:36:58 10° S 13:45:06 29° SE 13:53:22 10° ENE daylight
04 Nov - 15:40:12 10° SW 15:49:59 63° NW 15:59:59 10° NNE daylight
04 Nov - 17:53:31 10° NW 17:55:43 11° NW 17:57:55 10° NNW daylight
